Location: Croydon
(51.3762°N, 0.0982°W)
Time: 00:09:41
(UTC+01:00)

VELOX 1 - Pass Details

Date: 24 April 2019
Orbit: 629 x 644 km, 98.2° (Epoch: 21 May)

Event Time Altitude Azimuth Distance (km) Brightness Sun altitude
Exits shadow 01:34:49 58° 78° (ENE) 736 ? -25.4°
Maximum altitude 01:34:55 59° 71° (ENE) 735 ? -25.4°
Drops below altitude 10° 01:39:15 10° 352° (N) 2,022 ? -25.3°
Sets 01:41:28 0° 349° (NNW) 2,935 ? -25.2°
